Preview of NWS' New Version of Forecast
This preview is not operational and should not be used for support decisions.
Latest weather observations around

Topeka, Philip Billard Municipal Airport (KTOP)

Using English Units (Switch to International System of Units)
Date/ Time (CDT) Wind (mph) Vis. (mi) Weather Sky Cond. Temp (°F) Rel. Humidity Wind Chill (°F) Heat Index (°F) Pressure Precip. (in)
Air Dwpt 6 hour Altimeter (inHg) Sea level (inHg) 1 hr 3 hr 6 hr
Max Min
Sep 23 14:53 SSE 10 10 Clear CLR 81 59     47%   81 30.06 30.04      
Sep 23 13:53 SE 10 10 Clear CLR 79 58     49%   79 30.08 30.06      
Sep 23 12:53 SSE 10 10 Clear CLR 78 58     50%   78 30.1 30.09      
Sep 23 11:53 6 10 Clear CLR 74 59     60%   74 30.12 30.1      
Sep 23 10:53 Calm 10 Clear CLR 72 60     66%   72 30.13 30.11      
Sep 23 09:53 Calm 10 Clear CLR 66 61     84%     30.13 30.11      
Sep 23 08:53 Calm 6 Fog/Mist FEW002 61 59     93%     30.12 30.11      
Sep 23 08:49 Calm 3 Fog/Mist FEW002 61 59     94%     30.11        
Sep 23 08:25 Calm 2 Fog/Mist VV002 58 57     97%     30.11        
Sep 23 08:05 Calm 3 Fog/Mist CLR 58 57     97%     30.1        
Sep 23 08:02 Calm 1 Fog/Mist CLR 57 57     100%     30.1        
Sep 23 07:53 Calm 0.5 Fog CLR 54 53     97%     30.1 30.09      
Sep 23 07:51 Calm 0.5 Fog CLR 54 54     100%     30.1        
Sep 23 07:49 Calm 1.5 Fog/Mist CLR 54 54     100%     30.1        
Sep 23 07:37 Calm 3 Fog/Mist FEW003 53 53     100%     30.1        
Sep 23 07:35 Calm 1.25 Fog/Mist FEW003 53 53     100%     30.1        
Sep 23 07:33 Calm 0.75 Fog/Mist VV003 53 52     96%     30.1        
Sep 23 07:13 Calm 0.5 Fog VV002 54 53     97%     30.09        
Sep 23 07:11 Calm 1.25 Fog/Mist SCT002 55 53     93%     30.08        
Sep 23 07:09 Calm 3 Fog/Mist BKN002 54 53     97%     30.08        
Sep 23 07:06 Calm 1 Fog/Mist VV002 53 52     96%     30.08        
Sep 23 06:53 Calm 0.5 Fog VV002 55 53     93%     30.08 30.06      
Sep 23 06:41 Calm 1 Fog/Mist VV003 54 52     93%     30.08        
Sep 23 06:38 Calm 0.5 Fog VV003 54 52     93%     30.08        
Sep 23 06:30 Calm 0.75 Fog/Mist VV003 55 53     93%     30.07        
Sep 23 06:26 Calm 1.75 Fog/Mist CLR 54 53     97%     30.07        
Sep 23 06:22 Calm 3 Fog/Mist FEW002 54 53     97%     30.07        
Sep 23 06:18 Calm 1.25 Fog/Mist FEW002 54 53     97%     30.07        
Sep 23 05:53 Calm 0.75 Fog/Mist VV002 56 54     93%     30.07 30.06      
Sep 23 05:33 Calm 1 Fog/Mist VV001 55 54     96%     30.07        
Sep 23 05:07 Calm 0.25 Fog VV001 54 53     97%     30.06        
Sep 23 04:59 Calm 1.25 Fog/Mist BKN002 55 53     93%     30.06        
Sep 23 04:53 Calm 4 Fog/Mist BKN002 54 53     97%     30.06 30.05      
Sep 23 04:46 Calm 3 Fog/Mist SCT002 54 52     93%     30.06        
Sep 23 04:44 Calm 1.25 Fog/Mist SCT002 54 53     97%     30.06        
Sep 23 04:41 Calm 0.75 Fog/Mist VV002 55 53     93%     30.06        
Sep 23 04:33 Calm 1.5 Fog/Mist FEW002 56 54     93%     30.06        
Sep 23 04:26 Calm 2.5 Fog/Mist CLR 55 54     96%     30.06        
Sep 23 04:00 Calm 3 Fog/Mist FEW003 56 54     93%     30.06        
Sep 23 03:57 Calm 1.25 Fog/Mist FEW003 56 55     97%     30.06        
Sep 23 03:53 Calm 0.5 Fog VV003 56 54     93%     30.05 30.04      
Sep 23 03:51 Calm 0.25 Fog VV003 55 54     94%     30.05        
Sep 23 03:44 Calm 0.75 Fog/Mist VV003 56 54     93%     30.05        
Sep 23 03:35 Calm 2 Fog/Mist FEW002 56 54     93%     30.05        
Sep 23 03:33 Calm 1 Fog/Mist VV002 56 54     93%     30.05        
Sep 23 03:12 Calm 0.25 Fog VV002 55 54     96%     30.05        
Sep 23 02:56 Calm 0.5 Fog VV003 57 54     89%     30.05        
Sep 23 02:53 Calm 0.75 Fog/Mist CLR 57 54     89%     30.05 30.04      
Sep 23 02:43 Calm 1.5 Fog/Mist CLR 56 54     93%     30.05        
Sep 23 02:06 Calm 10 Partly Cloudy SCT002 59 56     90%     30.06        
Sep 23 01:59 Calm 2 Fog/Mist SCT002 59 56     90%     30.06        
Sep 23 01:53 Calm 1.5 Fog/Mist BKN002 58 56     93%     30.06 30.04      
Sep 23 01:51 Calm 1.75 Fog/Mist BKN002 57 55     94%     30.06        
Sep 23 01:48 Calm 4 Fog/Mist BKN002 57 55     94%     30.06        
Sep 23 01:38 Calm 3 Fog/Mist FEW003 58 56     93%     30.05        
Sep 23 01:27 Calm 1.75 Fog/Mist FEW003 58 55     90%     30.05        
Sep 23 01:24 Calm 3 Fog/Mist SCT003 58 55     90%     30.06        
Sep 23 00:53 Calm 10 Clear CLR 58 56     93%     30.05 30.03      
Sep 23 00:09 Calm 10 Clear CLR 60 58     93%     30.05        
Sep 23 00:02 Calm 2 Fog/Mist CLR 60 58     93%     30.05        
Sep 22 23:53 Calm 0.75 Fog/Mist CLR 60 57     90%     30.04 30.03      
Sep 22 23:40 Calm 1.25 Fog/Mist CLR 60 58     93%     30.04        
Sep 22 23:28 Calm 2.5 Fog/Mist CLR 60 58     93%     30.05        
Sep 22 23:18 Calm 1.75 Fog/Mist CLR 60 58     93%     30.05        
Sep 22 23:10 Calm 1 Fog/Mist VV002 60 58     93%     30.05        
Sep 22 22:53 Calm 0.25 Fog VV002 59 57     93%     30.04 30.02      
Sep 22 22:49 Calm 0.25 Fog VV002 59 57     94%     30.04        
Sep 22 22:42 Calm 0.75 Fog/Mist VV002 60 58     93%     30.03        
Sep 22 22:08 Calm 5 Fog/Mist CLR 62 60     93%     30.02        
Sep 22 21:59 Calm 1.75 Fog/Mist CLR 62 59     90%     30.02        
Sep 22 21:53 Calm 10 Clear CLR 61 58     90%     30.02 30      
Sep 22 20:53 Calm 9 Clear CLR 63 61     93%     29.99 29.98      
Sep 22 19:53 Calm 10 Clear   65 60     84%     29.97 29.96      
Sep 22 18:53 NW 9 10 Clear CLR 70 60     71%     29.95 29.93      
Sep 22 18:09 WNW 13 10 Partly Cloudy SCT026 72 60     66%   72 29.94        
Sep 22 17:53 WNW 11 10 Mostly Cloudy BKN026 72 60     66%   72 29.93 29.91      
Sep 22 16:53 NW 11 10 Cloudy OVC026 73 63     71%   73 29.92 29.9      
Sep 22 15:53 WNW 13 10 Cloudy OVC021 73 64     73%   73 29.9 29.88      
Sep 22 14:53 W 13 10 Cloudy OVC017 73 65     76%   74 29.88 29.86      
Sep 22 14:31 W 11 10 Mostly Cloudy BKN018 76 66     71%   77 29.87        
Sep 22 14:14 NW 10 10 Partly Cloudy FEW019 SCT024 78 67     69%   79 29.86        
Sep 22 13:53 W 10 10 Mostly Cloudy BKN019 BKN023 78 68     71%   79 29.85 29.82      
Sep 22 13:34 WNW 10 10 Mostly Cloudy BKN017 BKN070 79 69     72%   80 29.85        
Sep 22 12:53 WSW 8 10 Mostly Cloudy FEW018 FEW026 BKN075 80 70     71%   83 29.85 29.82     0
Sep 22 12:45 W 9 10 Mostly Cloudy FEW018 SCT024 BKN075 80 70     71%   83 29.85        
Sep 22 12:32 W 9 10 Cloudy FEW018 BKN024 OVC035 78 69     74%   79 29.85        
Sep 22 11:53 W 8 10 Cloudy SCT017 BKN065 OVC080 77 70     79%   78 29.86 29.83 0    
Sep 22 11:23 SW 5 10 Cloudy FEW014 SCT021 OVC075 76 71     85%   77 29.86   0    
Sep 22 10:53 Calm 10 Cloudy FEW015 BKN023 OVC032 74 70     87%   75 29.85 29.83 0    
Sep 22 10:32 Calm 10 Light Rain FEW007 BKN029 OVC046 74 69     85%   75 29.85   0    
Sep 22 10:06 3 10 Mostly Cloudy SCT004 BKN055 72 69     91%   73 29.85        
Sep 22 09:53 ESE 5 10 Mostly Cloudy BKN004 BKN050 71 68     90%   72 29.85 29.82 0 0  
Sep 22 09:32 E 6 10 Cloudy BKN003 OVC037 70 68     93%     29.84   0    
Sep 22 09:15 ENE 7 10 Cloudy FEW004 BKN031 OVC043 69 67     93%     29.84   0    
Sep 22 09:03 E 7 9 Light Rain SCT010 BKN044 OVC065 68 66     93%     29.85   0    
Sep 22 08:53 E 7 10 Cloudy SCT004 BKN013 OVC026 68 66     93%     29.86 29.83 0    
Sep 22 07:53 E 7 10 Light Rain OVC004 67 65     93%     29.85 29.83 0    
Sep 22 07:01 E 6 10 Light Rain BKN004 BKN050 OVC100 67 65     93%     29.86   0    
Sep 22 06:53 E 6 10 Light Rain SCT004 BKN022 OVC110 66 65     96%     29.87 29.84 0   0
Sep 22 06:19 ESE 11 3 Rain and Fog/Mist FEW007 SCT017 OVC025 68 66     93%     29.87   0    
Sep 22 06:12 SE 10 1.5 Heavy Rain and Fog/Mist FEW007 OVC025 68 66     93%     29.88   0    
Sep 22 06:01 ESE 9 2.5 Heavy Rain and Fog/Mist FEW005 BKN016 OVC047 67 65     93%     29.89   0    
Sep 22 05:53 E 8 10 Light Rain SCT009 BKN025 OVC065 67 65     93%     29.88 29.86 0    
Sep 22 05:42 E 7 10 Light Rain SCT005 BKN013 OVC100 67 65     93%     29.89   0    
Sep 22 05:35 E 7 10 Light Rain BKN007 BKN065 BKN100 67 65     93%     29.89   0    
Sep 22 05:12 E 6 9 Light Rain FEW005 SCT026 BKN060 67 65     93%     29.89   0    
Sep 22 04:53 ESE 6 7 Light Rain SCT024 BKN047 OVC110 67 65     93%     29.89 29.87 0    
Sep 22 04:42 E 5 10 Light Rain SCT024 BKN032 BKN090 67 65     93%     29.9   0    
Sep 22 04:13 E 3 10 Light Rain BKN026 OVC034 67 64     90%     29.9   0    
Sep 22 04:06 Calm 10 Light Rain FEW007 SCT025 OVC030 67 64     90%     29.9   0    
Sep 22 03:53 E 3 10 Light Rain OVC025 67 64     90%     29.91 29.89 0 0  
Sep 22 02:53 NNE 8 10 Cloudy OVC020 68 63     84%     29.92 29.9 0    
Sep 22 02:33 NNW 8 10 Cloudy OVC021 69 63     81%     29.94   0    
Sep 22 02:18 N 10 10 Cloudy OVC023 70 63     78%     29.92        
Sep 22 01:53 NNE 13 10 Cloudy OVC024 73 65     76%   74 29.91 29.88      
Sep 22 01:43 N 8 10 Cloudy BKN026 BKN045 OVC050 73 66     79%   74 29.9        
Sep 22 00:53 S 8 10 Mostly Cloudy SCT050 BKN120 77 69     77%   78 29.89 29.86      
Sep 21 23:53 S 7 10 Clear CLR 76 69     79%   77 29.89 29.86      
Sep 21 22:53 SE 10 10 Clear CLR 77 69     77%   78 29.89 29.87      
Sep 21 21:53 S 10 10 Clear CLR 77 70     79%   78 29.88 29.85      
Sep 21 20:53 S 11 10 Clear CLR 77 70     79%   78 29.88 29.85      
Sep 21 19:53 SSE 13 10 Clear CLR 77 71     82%   78 29.88 29.85      
Sep 21 19:01 SSE 13 10 Partly Cloudy SCT022 77 71     82%   78 29.88        
Sep 21 18:53 SSE 11 10 Mostly Cloudy SCT020 BKN025 77 70     79%   78 29.89 29.86     0
Sep 21 17:53 SSE 9 10 Cloudy OVC021 78 70     76%   79 29.9 29.87      
Sep 21 16:53 SSE 13 10 Cloudy OVC021 77 70     79%   78 29.89 29.87      
Sep 21 16:32 S 16 10 Mostly Cloudy BKN019 77 69     77%   78 29.9        
Sep 21 15:53 S 20 10 Mostly Clear and Windy FEW100 79 69     72%   80 29.9 29.87   0  
Sep 21 14:53 S 17 10 Clear CLR 77 69     77%   78 29.91 29.88 0    
Sep 21 13:53 S 17 10 Light Rain FEW019 FEW055 BKN120 76 69     79%   77 29.91 29.89 0    
Sep 21 13:40 S 18 10 Partly Cloudy FEW017 SCT036 77 68     74%   78 29.92        
Sep 21 12:53 S 16 10 Cloudy OVC016 78 71     79%   79 29.93 29.91     0
Sep 21 11:53 S 15 10 Cloudy BKN018 OVC026 78 71     79%   79 29.93 29.9      
Sep 21 10:53 SSW 14 10 Cloudy SCT018 OVC025 77 70     79%   78 29.94 29.92      
Sep 21 09:53 S 15 10 Cloudy BKN017 OVC034 76 70     82%   77 29.94 29.91 0 0  
Sep 21 08:53 S 14 10 Cloudy FEW018 BKN085 OVC100 76 70     82%   77 29.93 29.91 0    
Sep 21 07:53 S 10 10 Partly Cloudy SCT085 75 70     84%   76 29.93 29.91 0    
Sep 21 07:39 S 9 10 Partly Cloudy FEW017 SCT029 SCT040 75 70     84%   76 29.93   0    
Sep 21 06:53 S 11 10 Cloudy SCT017 BKN021 OVC029 75 69     82%   76 29.94 29.91      
Sep 21 05:53 S 9 10 Cloudy OVC016 75 69     82%   76 29.93 29.9      
Sep 21 04:53 S 10 10 Cloudy BKN016 OVC120 74 69     85%   75 29.92 29.9      
Sep 21 03:53 SSE 11 10 Cloudy OVC018 74 69     85%   75 29.92 29.9      
Sep 21 02:53 SSE 11 10 Cloudy BKN015 OVC021 74 69     85%   75 29.93 29.9      
Sep 21 02:21 S 13 10 Cloudy OVC015 74 69     85%   75 29.93        
Sep 21 01:53 S 10 10 Cloudy OVC011 74 69     85%   75 29.94 29.91      
Sep 21 01:33 S 10 10 Cloudy OVC010 73 69     87%   74 29.94        
Sep 21 00:53 SSE 14 10 Cloudy OVC009 73 69     87%   74 29.94 29.91     0
Sep 20 23:53 SSE 13 10 Cloudy OVC013 73 69     87%   74 29.93 29.91      
Sep 20 22:53 SSE 10 10 Cloudy OVC014 73 69     87%   74 29.95 29.92      
Sep 20 22:21 SE 10 10 Cloudy BKN012 OVC017 73 69     87%   74 29.94        
Sep 20 21:53 SE 11 10 Cloudy SCT012 BKN020 OVC026 73 69     87%   74 29.94 29.92 0 0  
Sep 20 21:32 SE 11 10 Cloudy SCT015 OVC024 73 69     87%   74 29.94   0    
Sep 20 20:53 SSE 13 10 Cloudy OVC013 73 69     87%   74 29.94 29.91 0    
Sep 20 20:37 SE 10 10 Cloudy OVC013 73 69     87%   74 29.94   0    
Sep 20 20:17 SSE 11 10 Cloudy OVC015 73 69     87%   74 29.94   0    
Sep 20 19:53 SSE 13 8 Light Rain BKN013 OVC025 72 69     91%   73 29.94 29.91 0    
Sep 20 19:19 SE 10 10 Clear   73 69     87%   74 29.93        
Sep 20 18:53 SSE 13 10 Clear   73 68     84%   74 29.94 29.91     0
Sep 20 18:33 SE 15 10 Cloudy FEW019 BKN024 OVC050 73 68     84%   74 29.93        
Sep 20 18:14 SSE 11 10 Cloudy SCT027 BKN040 OVC055 75 68     79%   76 29.93        
Sep 20 17:53 SSE 15 10 Cloudy BKN028 OVC035 75 69     82%   76 29.94 29.92 0    
Sep 20 17:20 SSE 13 10 Clear   75 69     82%   76 29.94   0    
Sep 20 16:53 SSE 10 10 Clear   74 70     87%   75 29.95 29.92 0    
Sep 20 16:48 SSE 10 7 Clear   73 72     94%   75 29.95   0    
Sep 20 16:38 SSE 10 8 Light Rain SCT014 BKN021 OVC034 73 70     90%   74 29.95   0    
Sep 20 15:53 SSE 13 10 Light Rain FEW023 BKN034 OVC085 76 69     79%   77 29.96 29.93 0 0  
Sep 20 14:53 SSE 14 10 Light Rain FEW032 BKN060 OVC090 76 69     79%   77 29.97 29.95 0    
Sep 20 13:53 SSE 16 10 Cloudy SCT037 OVC048 82 67     60%   85 29.97 29.94      
Sep 20 12:53 SSE 17 10 Mostly Cloudy BKN035 84 67     57%   87 29.98 29.96      
Sep 20 10:53 SSE 17 10 Mostly Clear FEW024 81 67     62%   83 30 29.98      
May 15 06:53 W 5 10 Cloudy OVC048 67 65     93%     29.95 29.93      
May 15 00:53 S 5 10 Clear CLR 69 67     93%     29.91 29.88     0
May 14 23:53 Calm 10 Clear CLR 68 68     100%     29.9 29.88      
Notice The following observation data may not be complete
May 14 20:41   4 Thunderstorms and Rain and Fog/Mist BKN040 BKN060 OVC070   66      %     29.81   0    
May 14 20:00 3 10 Clear CLR 73 62     68%   73 29.79        
May 14 10:53 SSW 6 10 Clear CLR 78 68     71%   79 29.92 29.88      
May 14 03:53 Calm 10 Clear CLR 74 65     74%   74 29.89 29.86      
May 12 10:53 SSW 9 10 Clear CLR 81 66     61%   83 29.84 29.81      
May 11 18:53 SSE 10 10 Mostly Cloudy BKN065 84 66     55%   86 29.68 29.65      
Jun 11 12:53 S 22 10 Clear and Windy CLR 89 70     53%   94 29.77 29.74      
Jun 10 19:53 S 10 10 Clear CLR 85 71     63%   90 29.7 29.67      
Jun 10 13:53 S 21 10 Clear and Windy CLR 87 71     59%   93 29.72 29.7      
Jun 10 06:53 S 15 10 Clear CLR 70 63     78%     29.78 29.75      
Jun 09 21:53 S 9 10 Clear CLR 78 61     56%   78 29.79 29.76      
Jun 08 11:53   10 Clear CLR 79 51     38%   78 30.03 30.01      
Jun 06 11:53 NE 7 10 Clear CLR 79 61     54%   79 30.02 30      
Jun 06 02:53 Calm 10 Clear CLR 66 63     90%     29.92 29.89      
Jun 05 21:53 Calm   Clear CLR 75 68     79%   76 29.87 29.85